owner,sensor,date,latitude,longitude,sea_surface_height_above_sea_level,qcFlag 
TCOON,ioos:station:TCOON:005:1,2014-04-01T00:00:00Z,27.6346,-97.2370,1.08,1111122 
TCOON,ioos:station:TCOON:005:1,2014-04-01T01:00:00Z,27.6346,-97.2370,1.067,1111122 
TCOON,ioos:station:TCOON:005:1,2014-04-01T02:00:00Z,27.6346,-97.2370,1.055,1111122 
TCOON,ioos:station:TCOON:005:1,2014-04-01T03:00:00Z,27.6346,-97.2370,1.039,1111122 
TCOON,ioos:station:TCOON:005:1,2014-04-01T04:00:00Z,27.6346,-97.2370,1.028,1111122 
TCOON,ioos:station:TCOON:005:1,2014-04-01T05:00:00Z,27.6346,-97.2370,1.017,1111122 
TCOON,ioos:station:TCOON:005:1,2014-04-01T06:12:00Z,27.6346,-97.2370,1.005,1111122 
TCOON,ioos:station:TCOON:005:1,2014-04-01T07:00:00Z,27.6346,-97.2370,1.005,1111122 
TCOON,ioos:station:TCOON:005:1,2014-04-01T08:00:00Z,27.6346,-97.2370,1.017,1111122 
TCOON,ioos:station:TCOON:005:1,2014-04-01T09:00:00Z,27.6346,-97.2370,1.02,1111122 
TCOON,ioos:station:TCOON:005:1,2014-04-01T10:00:00Z,27.6346,-97.2370,1.024,1111122 
TCOON,ioos:station:TCOON:005:1,2014-04-01T11:00:00Z,27.6346,-97.2370,1.031,1111122 
TCOON,ioos:station:TCOON:005:1,2014-04-01T12:00:00Z,27.6346,-97.2370,1.041,1111122 
TCOON,ioos:station:TCOON:005:1,2014-04-01T13:00:00Z,27.6346,-97.2370,1.06,1111122 
TCOON,ioos:station:TCOON:005:1,2014-04-01T14:00:00Z,27.6346,-97.2370,1.075,1111122 
TCOON,ioos:station:TCOON:005:1,2014-04-01T15:00:00Z,27.6346,-97.2370,1.088,1111122 
TCOON,ioos:station:TCOON:005:1,2014-04-01T16:00:00Z,27.6346,-97.2370,1.094,1111122 
TCOON,ioos:station:TCOON:005:1,2014-04-01T17:00:00Z,27.6346,-97.2370,1.088,1111122 
TCOON,ioos:station:TCOON:005:1,2014-04-01T18:00:00Z,27.6346,-97.2370,1.09,1111122 
TCOON,ioos:station:TCOON:005:1,2014-04-01T19:00:00Z,27.6346,-97.2370,1.093,1111122 
TCOON,ioos:station:TCOON:005:1,2014-04-01T20:00:00Z,27.6346,-97.2370,1.09,1111122 
TCOON,ioos:station:TCOON:005:1,2014-04-01T21:00:00Z,27.6346,-97.2370,1.09,1111122 
TCOON,ioos:station:TCOON:005:1,2014-04-01T22:00:00Z,27.6346,-97.2370,1.081,1111122 
TCOON,ioos:station:TCOON:005:1,2014-04-01T23:00:00Z,27.6346,-97.2370,1.073,1111122 
TCOON,ioos:station:TCOON:005:1,2014-04-02T00:00:00Z,27.6346,-97.2370,1.058,1111122 
TCOON,ioos:station:TCOON:005:1,2014-04-02T01:00:00Z,27.6346,-97.2370,1.043,1111122 
TCOON,ioos:station:TCOON:005:1,2014-04-02T02:00:00Z,27.6346,-97.2370,1.028,1111122 
TCOON,ioos:station:TCOON:005:1,2014-04-02T03:00:00Z,27.6346,-97.2370,1.016,1111122 
TCOON,ioos:station:TCOON:005:1,2014-04-02T04:00:00Z,27.6346,-97.2370,0.99,1111122 
TCOON,ioos:station:TCOON:005:1,2014-04-02T05:00:00Z,27.6346,-97.2370,0.983,1111122 
TCOON,ioos:station:TCOON:005:1,2014-04-02T06:12:00Z,27.6346,-97.2370,0.967,1111122 
TCOON,ioos:station:TCOON:005:1,2014-04-02T07:00:00Z,27.6346,-97.2370,0.967,1111122 
TCOON,ioos:station:TCOON:005:1,2014-04-02T08:00:00Z,27.6346,-97.2370,0.97,1111122 
TCOON,ioos:station:TCOON:005:1,2014-04-02T09:00:00Z,27.6346,-97.2370,0.979,1111122 
TCOON,ioos:station:TCOON:005:1,2014-04-02T10:00:00Z,27.6346,-97.2370,0.981,1111122 
TCOON,ioos:station:TCOON:005:1,2014-04-02T11:00:00Z,27.6346,-97.2370,0.986,1111122 
TCOON,ioos:station:TCOON:005:1,2014-04-02T12:00:00Z,27.6346,-97.2370,0.997,1111122 
TCOON,ioos:station:TCOON:005:1,2014-04-02T13:00:00Z,27.6346,-97.2370,1.002,1111122 
TCOON,ioos:station:TCOON:005:1,2014-04-02T14:00:00Z,27.6346,-97.2370,1.014,1111122 
TCOON,ioos:station:TCOON:005:1,2014-04-02T15:00:00Z,27.6346,-97.2370,1.029,1111122 
TCOON,ioos:station:TCOON:005:1,2014-04-02T16:00:00Z,27.6346,-97.2370,1.05,1111122 
TCOON,ioos:station:TCOON:005:1,2014-04-02T17:00:00Z,27.6346,-97.2370,1.061,1111122 
TCOON,ioos:station:TCOON:005:1,2014-04-02T18:00:00Z,27.6346,-97.2370,1.066,1111122 
TCOON,ioos:station:TCOON:005:1,2014-04-02T19:00:00Z,27.6346,-97.2370,1.047,1111122 
TCOON,ioos:station:TCOON:005:1,2014-04-02T20:00:00Z,27.6346,-97.2370,1.051,1111122 
TCOON,ioos:station:TCOON:005:1,2014-04-02T21:00:00Z,27.6346,-97.2370,1.052,1111122 
TCOON,ioos:station:TCOON:005:1,2014-04-02T22:00:00Z,27.6346,-97.2370,1.05,1111122 
TCOON,ioos:station:TCOON:005:1,2014-04-02T23:00:00Z,27.6346,-97.2370,1.046,1111122 
TCOON,ioos:station:TCOON:005:1,2014-04-03T00:00:00Z,27.6346,-97.2370,1.033,1111122 
TCOON,ioos:station:TCOON:005:1,2014-04-03T01:00:00Z,27.6346,-97.2370,1.027,1111122 
TCOON,ioos:station:TCOON:005:1,2014-04-03T02:00:00Z,27.6346,-97.2370,1.014,1111122 
TCOON,ioos:station:TCOON:005:1,2014-04-03T03:00:00Z,27.6346,-97.2370,0.976,1111122 
TCOON,ioos:station:TCOON:005:1,2014-04-03T04:00:00Z,27.6346,-97.2370,0.984,1111122 
TCOON,ioos:station:TCOON:005:1,2014-04-03T05:00:00Z,27.6346,-97.2370,0.971,1111122 
TCOON,ioos:station:TCOON:005:1,2014-04-03T06:06:00Z,27.6346,-97.2370,0.958,1111122 
TCOON,ioos:station:TCOON:005:1,2014-04-03T07:00:00Z,27.6346,-97.2370,0.948,1111122 
TCOON,ioos:station:TCOON:005:1,2014-04-03T08:00:00Z,27.6346,-97.2370,0.935,1111122 
TCOON,ioos:station:TCOON:005:1,2014-04-03T09:00:00Z,27.6346,-97.2370,0.933,1111122 
TCOON,ioos:station:TCOON:005:1,2014-04-03T10:00:00Z,27.6346,-97.2370,0.946,1111122 
TCOON,ioos:station:TCOON:005:1,2014-04-03T11:00:00Z,27.6346,-97.2370,0.955,1111122 
TCOON,ioos:station:TCOON:005:1,2014-04-03T12:00:00Z,27.6346,-97.2370,0.96,1111122 
TCOON,ioos:station:TCOON:005:1,2014-04-03T13:00:00Z,27.6346,-97.2370,0.964,1111122 
TCOON,ioos:station:TCOON:005:1,2014-04-03T14:00:00Z,27.6346,-97.2370,0.973,1111122 
TCOON,ioos:station:TCOON:005:1,2014-04-03T15:00:00Z,27.6346,-97.2370,0.988,1111122 
TCOON,ioos:station:TCOON:005:1,2014-04-03T16:00:00Z,27.6346,-97.2370,1.006,1111122 
TCOON,ioos:station:TCOON:005:1,2014-04-03T17:00:00Z,27.6346,-97.2370,1.019,1111122 
TCOON,ioos:station:TCOON:005:1,2014-04-03T18:00:00Z,27.6346,-97.2370,1.042,1111122 
TCOON,ioos:station:TCOON:005:1,2014-04-03T19:00:00Z,27.6346,-97.2370,1.062,1111122 
TCOON,ioos:station:TCOON:005:1,2014-04-03T20:00:00Z,27.6346,-97.2370,1.063,1111122 
TCOON,ioos:station:TCOON:005:1,2014-04-03T21:00:00Z,27.6346,-97.2370,1.059,1111122 
TCOON,ioos:station:TCOON:005:1,2014-04-03T22:00:00Z,27.6346,-97.2370,1.066,1111122 
TCOON,ioos:station:TCOON:005:1,2014-04-03T23:00:00Z,27.6346,-97.2370,1.082,1111122 
TCOON,ioos:station:TCOON:005:1,2014-04-04T00:00:00Z,27.6346,-97.2370,1.09,1111122 
TCOON,ioos:station:TCOON:005:1,2014-04-04T01:00:00Z,27.6346,-97.2370,1.086,1111122 
TCOON,ioos:station:TCOON:005:1,2014-04-04T02:00:00Z,27.6346,-97.2370,1.07,1111122 
TCOON,ioos:station:TCOON:005:1,2014-04-04T03:00:00Z,27.6346,-97.2370,1.068,1111122 
TCOON,ioos:station:TCOON:005:1,2014-04-04T04:00:00Z,27.6346,-97.2370,1.06,1111122 
TCOON,ioos:station:TCOON:005:1,2014-04-04T05:00:00Z,27.6346,-97.2370,1.05,1111122 
TCOON,ioos:station:TCOON:005:1,2014-04-04T06:18:00Z,27.6346,-97.2370,1.026,1111122 
TCOON,ioos:station:TCOON:005:1,2014-04-04T07:00:00Z,27.6346,-97.2370,1.023,1111122 
TCOON,ioos:station:TCOON:005:1,2014-04-04T08:00:00Z,27.6346,-97.2370,1.028,1111122 
TCOON,ioos:station:TCOON:005:1,2014-04-04T09:00:00Z,27.6346,-97.2370,1.021,1111122 
TCOON,ioos:station:TCOON:005:1,2014-04-04T10:00:00Z,27.6346,-97.2370,1.009,1111122 
TCOON,ioos:station:TCOON:005:1,2014-04-04T11:00:00Z,27.6346,-97.2370,0.992,1111122 
TCOON,ioos:station:TCOON:005:1,2014-04-04T12:00:00Z,27.6346,-97.2370,0.98,1111122 
TCOON,ioos:station:TCOON:005:1,2014-04-04T13:00:00Z,27.6346,-97.2370,1.002,1111122 
TCOON,ioos:station:TCOON:005:1,2014-04-04T14:00:00Z,27.6346,-97.2370,1.05,1111122 
TCOON,ioos:station:TCOON:005:1,2014-04-04T15:00:00Z,27.6346,-97.2370,1.079,1111122 
TCOON,ioos:station:TCOON:005:1,2014-04-04T16:00:00Z,27.6346,-97.2370,1.077,1111122 
TCOON,ioos:station:TCOON:005:1,2014-04-04T17:00:00Z,27.6346,-97.2370,1.063,1111122 
TCOON,ioos:station:TCOON:005:1,2014-04-04T18:00:00Z,27.6346,-97.2370,1.067,1111122 
TCOON,ioos:station:TCOON:005:1,2014-04-04T19:00:00Z,27.6346,-97.2370,1.078,1111122 
TCOON,ioos:station:TCOON:005:1,2014-04-04T20:00:00Z,27.6346,-97.2370,1.083,1111122 
TCOON,ioos:station:TCOON:005:1,2014-04-04T21:00:00Z,27.6346,-97.2370,1.079,1111122 
TCOON,ioos:station:TCOON:005:1,2014-04-04T22:00:00Z,27.6346,-97.2370,1.082,1111122 
TCOON,ioos:station:TCOON:005:1,2014-04-04T23:00:00Z,27.6346,-97.2370,1.087,1111122 
TCOON,ioos:station:TCOON:005:1,2014-04-05T00:00:00Z,27.6346,-97.2370,1.093,1111122 
TCOON,ioos:station:TCOON:005:1,2014-04-05T01:00:00Z,27.6346,-97.2370,1.102,1111122 
TCOON,ioos:station:TCOON:005:1,2014-04-05T02:00:00Z,27.6346,-97.2370,1.101,1111122 
TCOON,ioos:station:TCOON:005:1,2014-04-05T03:00:00Z,27.6346,-97.2370,1.091,1111122 
TCOON,ioos:station:TCOON:005:1,2014-04-05T04:00:00Z,27.6346,-97.2370,1.085,1111122 
TCOON,ioos:station:TCOON:005:1,2014-04-05T05:00:00Z,27.6346,-97.2370,1.069,1111122 
TCOON,ioos:station:TCOON:005:1,2014-04-05T06:00:00Z,27.6346,-97.2370,1.048,1111122 
TCOON,ioos:station:TCOON:005:1,2014-04-05T07:00:00Z,27.6346,-97.2370,1.032,1111122 
TCOON,ioos:station:TCOON:005:1,2014-04-05T08:00:00Z,27.6346,-97.2370,1.024,1111122 
TCOON,ioos:station:TCOON:005:1,2014-04-05T09:00:00Z,27.6346,-97.2370,1.006,1111122 
TCOON,ioos:station:TCOON:005:1,2014-04-05T10:00:00Z,27.6346,-97.2370,0.999,1111122 
TCOON,ioos:station:TCOON:005:1,2014-04-05T11:00:00Z,27.6346,-97.2370,0.988,1111122 
TCOON,ioos:station:TCOON:005:1,2014-04-05T12:00:00Z,27.6346,-97.2370,0.989,1111122 
TCOON,ioos:station:TCOON:005:1,2014-04-05T13:00:00Z,27.6346,-97.2370,0.984,1111122 
TCOON,ioos:station:TCOON:005:1,2014-04-05T14:00:00Z,27.6346,-97.2370,0.98,1111122 
TCOON,ioos:station:TCOON:005:1,2014-04-05T15:00:00Z,27.6346,-97.2370,0.997,1111122 
TCOON,ioos:station:TCOON:005:1,2014-04-05T16:00:00Z,27.6346,-97.2370,1.007,1111122 
TCOON,ioos:station:TCOON:005:1,2014-04-05T17:00:00Z,27.6346,-97.2370,1.017,1111122 
TCOON,ioos:station:TCOON:005:1,2014-04-05T18:00:00Z,27.6346,-97.2370,1.03,1111122 
TCOON,ioos:station:TCOON:005:1,2014-04-05T19:00:00Z,27.6346,-97.2370,1.043,1111122 
TCOON,ioos:station:TCOON:005:1,2014-04-05T20:00:00Z,27.6346,-97.2370,1.068,1111122 
TCOON,ioos:station:TCOON:005:1,2014-04-05T21:00:00Z,27.6346,-97.2370,1.074,1111122 
TCOON,ioos:station:TCOON:005:1,2014-04-05T22:00:00Z,27.6346,-97.2370,1.086,1111122 
TCOON,ioos:station:TCOON:005:1,2014-04-05T23:00:00Z,27.6346,-97.2370,1.097,1111122 
TCOON,ioos:station:TCOON:005:1,2014-04-06T00:00:00Z,27.6346,-97.2370,1.108,1111122 
TCOON,ioos:station:TCOON:005:1,2014-04-06T01:00:00Z,27.6346,-97.2370,1.112,1111122 
TCOON,ioos:station:TCOON:005:1,2014-04-06T02:00:00Z,27.6346,-97.2370,1.115,1111122 
TCOON,ioos:station:TCOON:005:1,2014-04-06T03:00:00Z,27.6346,-97.2370,1.121,1111122 
TCOON,ioos:station:TCOON:005:1,2014-04-06T04:00:00Z,27.6346,-97.2370,1.12,1111122 
TCOON,ioos:station:TCOON:005:1,2014-04-06T05:00:00Z,27.6346,-97.2370,1.12,1111122 
TCOON,ioos:station:TCOON:005:1,2014-04-06T06:06:00Z,27.6346,-97.2370,1.116,1111122 
TCOON,ioos:station:TCOON:005:1,2014-04-06T07:00:00Z,27.6346,-97.2370,1.116,1111122 
TCOON,ioos:station:TCOON:005:1,2014-04-06T08:00:00Z,27.6346,-97.2370,1.107,1111122 
TCOON,ioos:station:TCOON:005:1,2014-04-06T10:00:00Z,27.6346,-97.2370,1.086,1111122 
TCOON,ioos:station:TCOON:005:1,2014-04-06T12:00:00Z,27.6346,-97.2370,1.081,1111122 
TCOON,ioos:station:TCOON:005:1,2014-04-06T13:30:00Z,27.6346,-97.2370,1.089,1111122 
TCOON,ioos:station:TCOON:005:1,2014-04-06T14:00:00Z,27.6346,-97.2370,1.093,1111122 
TCOON,ioos:station:TCOON:005:1,2014-04-06T15:00:00Z,27.6346,-97.2370,1.099,1111122 
TCOON,ioos:station:TCOON:005:1,2014-04-06T16:00:00Z,27.6346,-97.2370,1.108,1111122 
TCOON,ioos:station:TCOON:005:1,2014-04-06T17:00:00Z,27.6346,-97.2370,1.123,1111122 
TCOON,ioos:station:TCOON:005:1,2014-04-06T18:00:00Z,27.6346,-97.2370,1.137,1111122 
TCOON,ioos:station:TCOON:005:1,2014-04-06T19:00:00Z,27.6346,-97.2370,1.15,1111122 
TCOON,ioos:station:TCOON:005:1,2014-04-06T20:00:00Z,27.6346,-97.2370,1.166,1111122 
TCOON,ioos:station:TCOON:005:1,2014-04-06T21:00:00Z,27.6346,-97.2370,1.174,1111122 
TCOON,ioos:station:TCOON:005:1,2014-04-06T22:00:00Z,27.6346,-97.2370,1.199,1111122 
TCOON,ioos:station:TCOON:005:1,2014-04-06T23:00:00Z,27.6346,-97.2370,1.196,1111122 
TCOON,ioos:station:TCOON:005:1,2014-04-07T00:00:00Z,27.6346,-97.2370,1.22,1111122 
TCOON,ioos:station:TCOON:005:1,2014-04-07T01:00:00Z,27.6346,-97.2370,1.216,1111122 
TCOON,ioos:station:TCOON:005:1,2014-04-07T02:00:00Z,27.6346,-97.2370,1.188,1111122 
TCOON,ioos:station:TCOON:005:1,2014-04-07T03:00:00Z,27.6346,-97.2370,1.181,1111122 
TCOON,ioos:station:TCOON:005:1,2014-04-07T04:00:00Z,27.6346,-97.2370,1.169,1111122 
TCOON,ioos:station:TCOON:005:1,2014-04-07T05:00:00Z,27.6346,-97.2370,1.15,1111122 
TCOON,ioos:station:TCOON:005:1,2014-04-07T06:00:00Z,27.6346,-97.2370,1.144,1111122 
TCOON,ioos:station:TCOON:005:1,2014-04-07T07:00:00Z,27.6346,-97.2370,1.145,1111122 
TCOON,ioos:station:TCOON:005:1,2014-04-07T08:00:00Z,27.6346,-97.2370,1.124,1111122 
TCOON,ioos:station:TCOON:005:1,2014-04-07T09:00:00Z,27.6346,-97.2370,1.098,1111122 
TCOON,ioos:station:TCOON:005:1,2014-04-07T10:00:00Z,27.6346,-97.2370,1.087,1111122 
TCOON,ioos:station:TCOON:005:1,2014-04-07T11:00:00Z,27.6346,-97.2370,1.082,1111122 
TCOON,ioos:station:TCOON:005:1,2014-04-07T12:00:00Z,27.6346,-97.2370,1.079,1111122 
TCOON,ioos:station:TCOON:005:1,2014-04-07T13:00:00Z,27.6346,-97.2370,1.075,1111122 
TCOON,ioos:station:TCOON:005:1,2014-04-07T14:00:00Z,27.6346,-97.2370,1.081,1111122 
TCOON,ioos:station:TCOON:005:1,2014-04-07T15:00:00Z,27.6346,-97.2370,1.067,1111122 
TCOON,ioos:station:TCOON:005:1,2014-04-07T16:00:00Z,27.6346,-97.2370,1.063,1111122 
TCOON,ioos:station:TCOON:005:1,2014-04-07T17:00:00Z,27.6346,-97.2370,1.055,1111122 
TCOON,ioos:station:TCOON:005:1,2014-04-07T18:00:00Z,27.6346,-97.2370,1.057,1111122 
TCOON,ioos:station:TCOON:005:1,2014-04-07T19:00:00Z,27.6346,-97.2370,1.058,1111122 
TCOON,ioos:station:TCOON:005:1,2014-04-07T20:00:00Z,27.6346,-97.2370,1.072,1111122 
TCOON,ioos:station:TCOON:005:1,2014-04-07T21:00:00Z,27.6346,-97.2370,1.08,1111122 
TCOON,ioos:station:TCOON:005:1,2014-04-07T22:00:00Z,27.6346,-97.2370,1.082,1111122 
TCOON,ioos:station:TCOON:005:1,2014-04-07T23:00:00Z,27.6346,-97.2370,1.085,1111122 
TCOON,ioos:station:TCOON:005:1,2014-04-08T00:00:00Z,27.6346,-97.2370,1.079,1111122 
TCOON,ioos:station:TCOON:005:1,2014-04-08T01:00:00Z,27.6346,-97.2370,1.081,1111122 
TCOON,ioos:station:TCOON:005:1,2014-04-08T02:00:00Z,27.6346,-97.2370,1.082,1111122 
TCOON,ioos:station:TCOON:005:1,2014-04-08T03:00:00Z,27.6346,-97.2370,1.068,1111122 
TCOON,ioos:station:TCOON:005:1,2014-04-08T04:00:00Z,27.6346,-97.2370,1.066,1111122 
TCOON,ioos:station:TCOON:005:1,2014-04-08T05:00:00Z,27.6346,-97.2370,1.063,1111122 
TCOON,ioos:station:TCOON:005:1,2014-04-08T06:06:00Z,27.6346,-97.2370,1.073,1111122 
TCOON,ioos:station:TCOON:005:1,2014-04-08T07:00:00Z,27.6346,-97.2370,1.069,1111122 
TCOON,ioos:station:TCOON:005:1,2014-04-08T08:00:00Z,27.6346,-97.2370,1.062,1111122 
TCOON,ioos:station:TCOON:005:1,2014-04-08T09:00:00Z,27.6346,-97.2370,1.056,1111122 
TCOON,ioos:station:TCOON:005:1,2014-04-08T10:00:00Z,27.6346,-97.2370,1.037,1111122 
TCOON,ioos:station:TCOON:005:1,2014-04-08T11:00:00Z,27.6346,-97.2370,1.02,1111122 
TCOON,ioos:station:TCOON:005:1,2014-04-08T12:00:00Z,27.6346,-97.2370,1.005,1111122 
TCOON,ioos:station:TCOON:005:1,2014-04-08T13:00:00Z,27.6346,-97.2370,0.99,1111122 
TCOON,ioos:station:TCOON:005:1,2014-04-08T14:00:00Z,27.6346,-97.2370,0.979,1111122 
TCOON,ioos:station:TCOON:005:1,2014-04-08T15:00:00Z,27.6346,-97.2370,0.987,1111122 
TCOON,ioos:station:TCOON:005:1,2014-04-08T16:00:00Z,27.6346,-97.2370,0.999,1111122 
TCOON,ioos:station:TCOON:005:1,2014-04-08T17:00:00Z,27.6346,-97.2370,0.985,1111122 
TCOON,ioos:station:TCOON:005:1,2014-04-08T18:00:00Z,27.6346,-97.2370,0.957,1111122 
TCOON,ioos:station:TCOON:005:1,2014-04-08T19:00:00Z,27.6346,-97.2370,0.972,1111122 
TCOON,ioos:station:TCOON:005:1,2014-04-08T20:00:00Z,27.6346,-97.2370,0.977,1111122 
TCOON,ioos:station:TCOON:005:1,2014-04-08T21:00:00Z,27.6346,-97.2370,0.986,1111122 
TCOON,ioos:station:TCOON:005:1,2014-04-08T22:00:00Z,27.6346,-97.2370,0.982,1111122 
TCOON,ioos:station:TCOON:005:1,2014-04-08T23:00:00Z,27.6346,-97.2370,0.98,1111122 
TCOON,ioos:station:TCOON:005:1,2014-04-09T00:00:00Z,27.6346,-97.2370,0.968,1111122 
TCOON,ioos:station:TCOON:005:1,2014-04-09T01:00:00Z,27.6346,-97.2370,0.965,1111122 
TCOON,ioos:station:TCOON:005:1,2014-04-09T02:00:00Z,27.6346,-97.2370,0.951,1111122 
TCOON,ioos:station:TCOON:005:1,2014-04-09T03:00:00Z,27.6346,-97.2370,0.946,1111122 
TCOON,ioos:station:TCOON:005:1,2014-04-09T04:00:00Z,27.6346,-97.2370,0.938,1111122 
TCOON,ioos:station:TCOON:005:1,2014-04-09T05:00:00Z,27.6346,-97.2370,0.932,1111122 
TCOON,ioos:station:TCOON:005:1,2014-04-09T06:06:00Z,27.6346,-97.2370,0.923,1111122 
TCOON,ioos:station:TCOON:005:1,2014-04-09T07:00:00Z,27.6346,-97.2370,0.916,1111122 
TCOON,ioos:station:TCOON:005:1,2014-04-09T08:00:00Z,27.6346,-97.2370,0.907,1111122 
TCOON,ioos:station:TCOON:005:1,2014-04-09T09:00:00Z,27.6346,-97.2370,0.898,1111122 
TCOON,ioos:station:TCOON:005:1,2014-04-09T10:00:00Z,27.6346,-97.2370,0.889,1111122 
TCOON,ioos:station:TCOON:005:1,2014-04-09T11:00:00Z,27.6346,-97.2370,0.879,1111122 
TCOON,ioos:station:TCOON:005:1,2014-04-09T12:00:00Z,27.6346,-97.2370,0.874,1111122 
TCOON,ioos:station:TCOON:005:1,2014-04-09T13:00:00Z,27.6346,-97.2370,0.867,1111122 
TCOON,ioos:station:TCOON:005:1,2014-04-09T14:00:00Z,27.6346,-97.2370,0.859,1111122 
TCOON,ioos:station:TCOON:005:1,2014-04-09T15:00:00Z,27.6346,-97.2370,0.856,1111122 
TCOON,ioos:station:TCOON:005:1,2014-04-09T16:00:00Z,27.6346,-97.2370,0.85,1111122 
TCOON,ioos:station:TCOON:005:1,2014-04-09T17:00:00Z,27.6346,-97.2370,0.844,1111122 
TCOON,ioos:station:TCOON:005:1,2014-04-09T18:00:00Z,27.6346,-97.2370,0.843,1111122 
TCOON,ioos:station:TCOON:005:1,2014-04-09T19:00:00Z,27.6346,-97.2370,0.841,1111122 
TCOON,ioos:station:TCOON:005:1,2014-04-09T20:00:00Z,27.6346,-97.2370,0.846,1111122 
TCOON,ioos:station:TCOON:005:1,2014-04-09T21:00:00Z,27.6346,-97.2370,0.848,1111122 
TCOON,ioos:station:TCOON:005:1,2014-04-09T22:00:00Z,27.6346,-97.2370,0.853,1111122 
TCOON,ioos:station:TCOON:005:1,2014-04-09T23:42:00Z,27.6346,-97.2370,0.851,1111122 
TCOON,ioos:station:TCOON:005:1,2014-04-10T00:00:00Z,27.6346,-97.2370,0.85,1111122 
TCOON,ioos:station:TCOON:005:1,2014-04-10T02:00:00Z,27.6346,-97.2370,0.845,1111122 
TCOON,ioos:station:TCOON:005:1,2014-04-10T03:00:00Z,27.6346,-97.2370,0.851,1111122 
TCOON,ioos:station:TCOON:005:1,2014-04-10T04:00:00Z,27.6346,-97.2370,0.854,1111122 
TCOON,ioos:station:TCOON:005:1,2014-04-10T05:00:00Z,27.6346,-97.2370,0.855,1111122 
TCOON,ioos:station:TCOON:005:1,2014-04-10T06:12:00Z,27.6346,-97.2370,0.851,1111122 
TCOON,ioos:station:TCOON:005:1,2014-04-10T07:00:00Z,27.6346,-97.2370,0.858,1111122 
TCOON,ioos:station:TCOON:005:1,2014-04-10T08:00:00Z,27.6346,-97.2370,0.856,1111122 
TCOON,ioos:station:TCOON:005:1,2014-04-10T09:00:00Z,27.6346,-97.2370,0.854,1111122 
TCOON,ioos:station:TCOON:005:1,2014-04-10T10:00:00Z,27.6346,-97.2370,0.854,1111122 
TCOON,ioos:station:TCOON:005:1,2014-04-10T11:00:00Z,27.6346,-97.2370,0.851,1111122 
TCOON,ioos:station:TCOON:005:1,2014-04-10T12:00:00Z,27.6346,-97.2370,0.851,1111122 
TCOON,ioos:station:TCOON:005:1,2014-04-10T13:00:00Z,27.6346,-97.2370,0.847,1111122 
TCOON,ioos:station:TCOON:005:1,2014-04-10T14:00:00Z,27.6346,-97.2370,0.851,1111122 
TCOON,ioos:station:TCOON:005:1,2014-04-10T15:00:00Z,27.6346,-97.2370,0.854,1111122 
TCOON,ioos:station:TCOON:005:1,2014-04-10T16:00:00Z,27.6346,-97.2370,0.857,1111122 
TCOON,ioos:station:TCOON:005:1,2014-04-10T17:00:00Z,27.6346,-97.2370,0.863,1111122 
TCOON,ioos:station:TCOON:005:1,2014-04-10T18:00:00Z,27.6346,-97.2370,0.869,1111122 
TCOON,ioos:station:TCOON:005:1,2014-04-10T19:00:00Z,27.6346,-97.2370,0.873,1111122 
TCOON,ioos:station:TCOON:005:1,2014-04-10T20:00:00Z,27.6346,-97.2370,0.878,1111122 
TCOON,ioos:station:TCOON:005:1,2014-04-10T21:00:00Z,27.6346,-97.2370,0.885,1111122 
TCOON,ioos:station:TCOON:005:1,2014-04-10T22:00:00Z,27.6346,-97.2370,0.9,1111122 
TCOON,ioos:station:TCOON:005:1,2014-04-10T23:00:00Z,27.6346,-97.2370,0.905,1111122 
TCOON,ioos:station:TCOON:005:1,2014-04-11T00:00:00Z,27.6346,-97.2370,0.909,1111122 
TCOON,ioos:station:TCOON:005:1,2014-04-11T01:00:00Z,27.6346,-97.2370,0.904,1111122 
TCOON,ioos:station:TCOON:005:1,2014-04-11T02:00:00Z,27.6346,-97.2370,0.897,1111122 
TCOON,ioos:station:TCOON:005:1,2014-04-11T03:00:00Z,27.6346,-97.2370,0.905,1111122 
TCOON,ioos:station:TCOON:005:1,2014-04-11T04:00:00Z,27.6346,-97.2370,0.905,1111122 
TCOON,ioos:station:TCOON:005:1,2014-04-11T05:00:00Z,27.6346,-97.2370,0.909,1111122 
TCOON,ioos:station:TCOON:005:1,2014-04-11T06:06:00Z,27.6346,-97.2370,0.911,1111122 
TCOON,ioos:station:TCOON:005:1,2014-04-11T07:00:00Z,27.6346,-97.2370,0.908,1111122 
TCOON,ioos:station:TCOON:005:1,2014-04-11T08:00:00Z,27.6346,-97.2370,0.912,1111122 
TCOON,ioos:station:TCOON:005:1,2014-04-11T09:00:00Z,27.6346,-97.2370,0.909,1111122 
TCOON,ioos:station:TCOON:005:1,2014-04-11T10:00:00Z,27.6346,-97.2370,0.91,1111122 
TCOON,ioos:station:TCOON:005:1,2014-04-11T11:00:00Z,27.6346,-97.2370,0.906,1111122 
TCOON,ioos:station:TCOON:005:1,2014-04-11T12:00:00Z,27.6346,-97.2370,0.907,1111122 
TCOON,ioos:station:TCOON:005:1,2014-04-11T13:00:00Z,27.6346,-97.2370,0.908,1111122 
TCOON,ioos:station:TCOON:005:1,2014-04-11T14:00:00Z,27.6346,-97.2370,0.904,1111122 
TCOON,ioos:station:TCOON:005:1,2014-04-11T15:00:00Z,27.6346,-97.2370,0.9,1111122 
TCOON,ioos:station:TCOON:005:1,2014-04-11T16:00:00Z,27.6346,-97.2370,0.896,1111122 
TCOON,ioos:station:TCOON:005:1,2014-04-11T17:00:00Z,27.6346,-97.2370,0.901,1111122 
TCOON,ioos:station:TCOON:005:1,2014-04-11T18:00:00Z,27.6346,-97.2370,0.896,1111122 
TCOON,ioos:station:TCOON:005:1,2014-04-11T19:00:00Z,27.6346,-97.2370,0.89,1111122 
TCOON,ioos:station:TCOON:005:1,2014-04-11T20:00:00Z,27.6346,-97.2370,0.894,1111122 
TCOON,ioos:station:TCOON:005:1,2014-04-11T21:00:00Z,27.6346,-97.2370,0.901,1111122 
TCOON,ioos:station:TCOON:005:1,2014-04-11T22:00:00Z,27.6346,-97.2370,0.899,1111122 
TCOON,ioos:station:TCOON:005:1,2014-04-11T23:00:00Z,27.6346,-97.2370,0.898,1111122 
TCOON,ioos:station:TCOON:005:1,2014-04-12T00:00:00Z,27.6346,-97.2370,0.892,1111122 
TCOON,ioos:station:TCOON:005:1,2014-04-12T01:00:00Z,27.6346,-97.2370,0.887,1111122 
TCOON,ioos:station:TCOON:005:1,2014-04-12T02:00:00Z,27.6346,-97.2370,0.883,1111122 
TCOON,ioos:station:TCOON:005:1,2014-04-12T03:00:00Z,27.6346,-97.2370,0.873,1111122 
TCOON,ioos:station:TCOON:005:1,2014-04-12T04:00:00Z,27.6346,-97.2370,0.871,1111122 
TCOON,ioos:station:TCOON:005:1,2014-04-12T05:00:00Z,27.6346,-97.2370,0.867,1111122 
TCOON,ioos:station:TCOON:005:1,2014-04-12T06:00:00Z,27.6346,-97.2370,0.865,1111122 
TCOON,ioos:station:TCOON:005:1,2014-04-12T07:06:00Z,27.6346,-97.2370,0.867,1111122 
TCOON,ioos:station:TCOON:005:1,2014-04-12T08:18:00Z,27.6346,-97.2370,0.871,1111122 
TCOON,ioos:station:TCOON:005:1,2014-04-12T09:00:00Z,27.6346,-97.2370,0.873,1111122 
TCOON,ioos:station:TCOON:005:1,2014-04-12T10:00:00Z,27.6346,-97.2370,0.869,1111122 
TCOON,ioos:station:TCOON:005:1,2014-04-12T11:00:00Z,27.6346,-97.2370,0.879,1111122 
TCOON,ioos:station:TCOON:005:1,2014-04-12T14:00:00Z,27.6346,-97.2370,0.88,1111122 
TCOON,ioos:station:TCOON:005:1,2014-04-12T15:00:00Z,27.6346,-97.2370,0.882,1111122 
TCOON,ioos:station:TCOON:005:1,2014-04-12T16:00:00Z,27.6346,-97.2370,0.886,1111122 
TCOON,ioos:station:TCOON:005:1,2014-04-12T17:00:00Z,27.6346,-97.2370,0.887,1111122 
TCOON,ioos:station:TCOON:005:1,2014-04-12T18:00:00Z,27.6346,-97.2370,0.886,1111122 
TCOON,ioos:station:TCOON:005:1,2014-04-12T19:00:00Z,27.6346,-97.2370,0.878,1111122 
TCOON,ioos:station:TCOON:005:1,2014-04-12T20:00:00Z,27.6346,-97.2370,0.883,1111122 
TCOON,ioos:station:TCOON:005:1,2014-04-12T21:00:00Z,27.6346,-97.2370,0.879,1111122 
TCOON,ioos:station:TCOON:005:1,2014-04-12T22:00:00Z,27.6346,-97.2370,0.882,1111122 
TCOON,ioos:station:TCOON:005:1,2014-04-12T23:00:00Z,27.6346,-97.2370,0.887,1111122 
TCOON,ioos:station:TCOON:005:1,2014-04-13T00:00:00Z,27.6346,-97.2370,0.889,1111122 
TCOON,ioos:station:TCOON:005:1,2014-04-13T01:00:00Z,27.6346,-97.2370,0.893,1111122 